Location: Newark
(44.3290°N, 23.7757°E)
Time: 20:48:16
(UTC+00:00)

BlueWalker 3 - Pass Details

Date: 30 November 2022
Orbit: 499 x 517 km, 53.2° (Epoch: 04 February)

Event Time Altitude Azimuth Distance (km) Brightness Sun altitude
Rises 16:41:10 0° 287° (WNW) 2,626 6.6 -19.8°
Reaches altitude 10° 16:43:45 10° 303° (WNW) 1,736 5.3 -20.2°
Maximum altitude 16:46:52 22° 356° (N) 1,151 3.7 -20.8°
Enters shadow 16:47:01 22° 359° (N) 1,153 3.6 -20.8°
